^^

Weather Underground History

Daily Summary for February 5, 2018 Units:  Metric    English   Both
Daily Weekly Monthly Yearly
  High: Low: Average:
Temperature: 27 °C 12 °C 19.5 °C
Dew Point: 16 °C 11 °C 13.3 °C
Humidity: 93% 45% 70%
Wind Speed: 11km/h 0km/h 2.8km/h
Wind Gust: 24km/h - -
Wind- - SW
Pressure: 1024.3 hPa 1017.0 hPa -
Precipitation: 0.0 mm    
 
 
Tabular Data for February 5, 2018
Time Temperature Dew Point Pressure Wind Wind Speed Wind Gust Humidity Rainfall Rate (Hourly) solar
00:04 14 °C 12 °C 1024.2 hPa Calm     85% 0.0 mm 0 W/m2
00:09 14 °C 12 °C 1024.2 hPa Calm     86% 0.0 mm 0 W/m2
00:14 14 °C 12 °C 1024.2 hPa Calm     86% 0.0 mm 0 W/m2
00:19 14 °C 12 °C 1024.2 hPa Calm     86% 0.0 mm 0 W/m2
00:24 14 °C 12 °C 1024.2 hPa Calm     87% 0.0 mm 0 W/m2
00:29 14 °C 12 °C 1024.3 hPa Calm     87% 0.0 mm 0 W/m2
00:34 14 °C 12 °C 1024.3 hPa Calm     88% 0.0 mm 0 W/m2
00:39 14 °C 12 °C 1024.2 hPa Calm     88% 0.0 mm 0 W/m2
00:44 14 °C 12 °C 1024.2 hPa Calm     88% 0.0 mm 0 W/m2
00:49 14 °C 12 °C 1024.2 hPa Calm     88% 0.0 mm 0 W/m2
00:54 14 °C 12 °C 1024.2 hPa Calm     88% 0.0 mm 0 W/m2
00:59 14 °C 12 °C 1024.2 hPa Calm     88% 0.0 mm 0 W/m2
01:04 14 °C 12 °C 1024.2 hPa Calm     88% 0.0 mm 0 W/m2
01:09 14 °C 12 °C 1024.2 hPa Calm     88% 0.0 mm 0 W/m2
01:14 13 °C 12 °C 1024.2 hPa Calm     88% 0.0 mm 0 W/m2
01:19 13 °C 12 °C 1024.2 hPa Calm     88% 0.0 mm 0 W/m2
01:24 13 °C 12 °C 1024.2 hPa Calm     88% 0.0 mm 0 W/m2
01:29 13 °C 12 °C 1024.2 hPa Calm     89% 0.0 mm 0 W/m2
01:34 13 °C 12 °C 1024.2 hPa Calm     89% 0.0 mm 0 W/m2
01:39 13 °C 12 °C 1024.2 hPa Calm     88% 0.0 mm 0 W/m2
01:44 13 °C 12 °C 1024.2 hPa Calm     88% 0.0 mm 0 W/m2
01:49 13 °C 12 °C 1024.2 hPa Calm     88% 0.0 mm 0 W/m2
01:54 13 °C 12 °C 1024.2 hPa Calm     89% 0.0 mm 0 W/m2
01:59 13 °C 11 °C 1024.2 hPa Calm     88% 0.0 mm 0 W/m2
02:04 13 °C 11 °C 1024.2 hPa Calm     88% 0.0 mm 0 W/m2
02:09 13 °C 11 °C 1024.0 hPa Calm     89% 0.0 mm 0 W/m2
02:14 13 °C 11 °C 1024.0 hPa Calm     90% 0.0 mm 0 W/m2
02:19 13 °C 11 °C 1024.0 hPa Calm     89% 0.0 mm 0 W/m2
02:24 13 °C 11 °C 1024.0 hPa Calm     89% 0.0 mm 0 W/m2
02:29 13 °C 11 °C 1023.9 hPa Calm     90% 0.0 mm 0 W/m2
02:34 13 °C 11 °C 1023.9 hPa Calm     90% 0.0 mm 0 W/m2
02:39 13 °C 11 °C 1023.8 hPa Calm     90% 0.0 mm 0 W/m2
02:44 13 °C 11 °C 1023.8 hPa Calm     90% 0.0 mm 0 W/m2
02:49 13 °C 11 °C 1023.8 hPa Calm     91% 0.0 mm 0 W/m2
02:54 13 °C 11 °C 1023.8 hPa Calm     91% 0.0 mm 0 W/m2
02:59 12 °C 11 °C 1023.8 hPa Calm     91% 0.0 mm 0 W/m2
03:04 12 °C 11 °C 1023.8 hPa Calm     91% 0.0 mm 0 W/m2
03:09 12 °C 11 °C 1023.7 hPa Calm     91% 0.0 mm 0 W/m2
03:14 12 °C 11 °C 1023.7 hPa Calm     91% 0.0 mm 0 W/m2
03:19 12 °C 11 °C 1023.7 hPa Calm     91% 0.0 mm 0 W/m2
03:24 12 °C 11 °C 1023.7 hPa Calm     91% 0.0 mm 0 W/m2
03:29 12 °C 11 °C 1023.7 hPa Calm     91% 0.0 mm 0 W/m2
03:34 12 °C 11 °C 1023.7 hPa Calm     91% 0.0 mm 0 W/m2
03:39 12 °C 11 °C 1023.7 hPa Calm     92% 0.0 mm 0 W/m2
03:44 12 °C 11 °C 1023.7 hPa Calm     92% 0.0 mm 0 W/m2
03:49 12 °C 11 °C 1023.8 hPa Calm     92% 0.0 mm 0 W/m2
03:54 12 °C 11 °C 1023.8 hPa Calm     92% 0.0 mm 0 W/m2
03:59 12 °C 11 °C 1023.7 hPa Calm     91% 0.0 mm 0 W/m2
04:04 12 °C 11 °C 1023.6 hPa Calm     92% 0.0 mm 0 W/m2
04:09 12 °C 11 °C 1023.6 hPa Calm     92% 0.0 mm 0 W/m2
04:14 12 °C 11 °C 1023.7 hPa Calm     92% 0.0 mm 0 W/m2
04:19 12 °C 11 °C 1023.6 hPa Calm     92% 0.0 mm 0 W/m2
04:24 12 °C 11 °C 1023.6 hPa Calm     92% 0.0 mm 0 W/m2
04:29 12 °C 11 °C 1023.6 hPa Calm     92% 0.0 mm 0 W/m2
04:34 12 °C 11 °C 1023.6 hPa Calm     92% 0.0 mm 0 W/m2
04:39 12 °C 11 °C 1023.5 hPa Calm     92% 0.0 mm 0 W/m2
04:44 12 °C 11 °C 1023.4 hPa Calm     92% 0.0 mm 0 W/m2
04:49 12 °C 11 °C 1023.4 hPa Calm     92% 0.0 mm 0 W/m2
04:54 12 °C 11 °C 1023.5 hPa Calm     92% 0.0 mm 0 W/m2
04:59 12 °C 11 °C 1023.6 hPa Calm     92% 0.0 mm 0 W/m2
05:04 12 °C 11 °C 1023.5 hPa Calm     92% 0.0 mm 0 W/m2
05:09 12 °C 11 °C 1023.5 hPa Calm     92% 0.0 mm 0 W/m2
05:14 12 °C 11 °C 1023.7 hPa Calm     92% 0.0 mm 0 W/m2
05:19 12 °C 11 °C 1023.7 hPa Calm     93% 0.0 mm 0 W/m2
05:24 12 °C 11 °C 1023.5 hPa Calm     93% 0.0 mm 0 W/m2
05:29 12 °C 11 °C 1023.5 hPa Calm     93% 0.0 mm 0 W/m2
05:34 12 °C 11 °C 1023.6 hPa Calm     93% 0.0 mm 0 W/m2
05:39 12 °C 11 °C 1023.7 hPa Calm     93% 0.0 mm 5 W/m2
05:44 12 °C 11 °C 1023.7 hPa Calm     93% 0.0 mm 9 W/m2
05:49 12 °C 11 °C 1023.7 hPa Calm     93% 0.0 mm 12 W/m2
05:54 12 °C 11 °C 1023.7 hPa Calm     93% 0.0 mm 14 W/m2
05:59 12 °C 11 °C 1023.8 hPa Calm     93% 0.0 mm 16 W/m2
06:04 12 °C 11 °C 1023.8 hPa Calm     93% 0.0 mm 18 W/m2
06:09 12 °C 11 °C 1023.8 hPa Calm     93% 0.0 mm 18 W/m2
06:14 12 °C 11 °C 1023.7 hPa Calm     93% 0.0 mm 19 W/m2
06:19 12 °C 11 °C 1023.6 hPa Calm     93% 0.0 mm 23 W/m2
06:24 12 °C 11 °C 1023.6 hPa Calm     93% 0.0 mm 26 W/m2
06:29 12 °C 11 °C 1023.6 hPa Calm     93% 0.0 mm 28 W/m2
06:34 12 °C 11 °C 1023.6 hPa Calm     93% 0.0 mm 28 W/m2
06:39 12 °C 11 °C 1023.5 hPa Calm     93% 0.0 mm 30 W/m2
06:44 12 °C 11 °C 1023.5 hPa Calm     93% 0.0 mm 35 W/m2
06:49 12 °C 11 °C 1023.6 hPa Calm     93% 0.0 mm 44 W/m2
06:54 12 °C 11 °C 1023.8 hPa Calm     93% 0.0 mm 53 W/m2
06:59 12 °C 11 °C 1023.8 hPa Calm     93% 0.0 mm 60 W/m2
07:04 13 °C 12 °C 1023.7 hPa Calm     93% 0.0 mm 70 W/m2
07:09 13 °C 12 °C 1023.7 hPa Calm     93% 0.0 mm 79 W/m2
07:14 13 °C 12 °C 1023.7 hPa Calm     93% 0.0 mm 86 W/m2
07:19 13 °C 12 °C 1023.6 hPa Calm     93% 0.0 mm 90 W/m2
07:24 13 °C 12 °C 1023.6 hPa Calm     93% 0.0 mm 95 W/m2
07:29 13 °C 12 °C 1023.6 hPa Calm     93% 0.0 mm 86 W/m2
07:34 13 °C 12 °C 1023.5 hPa Calm     93% 0.0 mm 86 W/m2
07:39 13 °C 12 °C 1023.7 hPa Calm     92% 0.0 mm 100 W/m2
07:44 14 °C 12 °C 1023.7 hPa Calm     92% 0.0 mm 100 W/m2
07:49 14 °C 13 °C 1023.7 hPa Calm     92% 0.0 mm 127 W/m2
07:54 14 °C 13 °C 1023.7 hPa Calm     92% 0.0 mm 153 W/m2
07:59 14 °C 13 °C 1023.6 hPa Calm     92% 0.0 mm 190 W/m2
08:04 14 °C 13 °C 1023.6 hPa Calm     91% 0.0 mm 276 W/m2
08:09 14 °C 13 °C 1023.7 hPa Calm   3 km/h 91% 0.0 mm 185 W/m2
08:14 14 °C 13 °C 1023.7 hPa Calm   3 km/h 90% 0.0 mm 181 W/m2
08:19 15 °C 13 °C 1023.7 hPa Calm     90% 0.0 mm 243 W/m2
08:24 15 °C 13 °C 1023.8 hPa Calm     89% 0.0 mm 202 W/m2
08:29 15 °C 13 °C 1023.9 hPa Calm     89% 0.0 mm 186 W/m2
08:34 15 °C 13 °C 1023.9 hPa Calm     88% 0.0 mm 294 W/m2
08:39 15 °C 13 °C 1023.8 hPa Calm     87% 0.0 mm 294 W/m2
08:44 16 °C 13 °C 1023.7 hPa Calm     87% 0.0 mm 276 W/m2
08:49 16 °C 14 °C 1023.7 hPa NNW 1 km/h 5 km/h 87% 0.0 mm 346 W/m2
08:54 16 °C 14 °C 1023.7 hPa Calm   5 km/h 87% 0.0 mm 376 W/m2
08:59 16 °C 14 °C 1023.7 hPa Calm   5 km/h 86% 0.0 mm 246 W/m2
09:04 16 °C 14 °C 1023.7 hPa NW 1 km/h 6 km/h 85% 0.0 mm 257 W/m2
09:09 17 °C 14 °C 1023.7 hPa NW 1 km/h 5 km/h 84% 0.0 mm 308 W/m2
09:14 17 °C 14 °C 1023.7 hPa West 1 km/h 6 km/h 84% 0.0 mm 267 W/m2
09:19 17 °C 14 °C 1023.7 hPa WSW 2 km/h 6 km/h 83% 0.0 mm 250 W/m2
09:24 17 °C 14 °C 1023.8 hPa Calm   5 km/h 82% 0.0 mm 227 W/m2
09:29 17 °C 14 °C 1023.7 hPa WSW 1 km/h 5 km/h 82% 0.0 mm 325 W/m2
09:34 18 °C 14 °C 1023.7 hPa WSW 3 km/h 10 km/h 81% 0.0 mm 225 W/m2
09:39 18 °C 14 °C 1023.7 hPa WSW 4 km/h 10 km/h 80% 0.0 mm 341 W/m2
09:44 18 °C 14 °C 1023.6 hPa WSW 2 km/h 6 km/h 79% 0.0 mm 464 W/m2
09:49 18 °C 14 °C 1023.5 hPa WSW 3 km/h 8 km/h 78% 0.0 mm 527 W/m2
09:54 18 °C 14 °C 1023.6 hPa SSW 5 km/h 11 km/h 77% 0.0 mm 527 W/m2
09:59 18 °C 14 °C 1023.6 hPa South 2 km/h 11 km/h 76% 0.0 mm 195 W/m2
10:04 19 °C 14 °C 1023.4 hPa SSE 1 km/h 10 km/h 76% 0.0 mm 181 W/m2
10:09 19 °C 14 °C 1023.4 hPa South 3 km/h 10 km/h 75% 0.0 mm 519 W/m2
10:14 19 °C 14 °C 1023.4 hPa South 4 km/h 11 km/h 74% 0.0 mm 612 W/m2
10:19 19 °C 14 °C 1023.4 hPa SSW 3 km/h 8 km/h 74% 0.0 mm 624 W/m2
10:24 19 °C 14 °C 1023.3 hPa WSW 6 km/h 11 km/h 73% 0.0 mm 638 W/m2
10:29 19 °C 14 °C 1023.3 hPa WSW 3 km/h 11 km/h 72% 0.0 mm 663 W/m2
10:34 20 °C 14 °C 1023.3 hPa WSW 5 km/h 13 km/h 72% 0.0 mm 722 W/m2
10:39 20 °C 14 °C 1023.3 hPa WSW 2 km/h 11 km/h 71% 0.0 mm 735 W/m2
10:44 20 °C 15 °C 1023.3 hPa SSW 6 km/h 14 km/h 71% 0.0 mm 726 W/m2
10:49 21 °C 15 °C 1023.3 hPa SSW 5 km/h 14 km/h 70% 0.0 mm 712 W/m2
10:54 21 °C 15 °C 1023.3 hPa SSW 2 km/h 13 km/h 70% 0.0 mm 708 W/m2
10:59 21 °C 15 °C 1023.2 hPa WSW 6 km/h 13 km/h 68% 0.0 mm 708 W/m2
11:04 21 °C 15 °C 1023.1 hPa SW 5 km/h 11 km/h 68% 0.0 mm 710 W/m2
11:09 21 °C 15 °C 1023.1 hPa SSW 6 km/h 13 km/h 67% 0.0 mm 710 W/m2
11:14 22 °C 15 °C 1023.1 hPa WSW 7 km/h 13 km/h 67% 0.0 mm 710 W/m2
11:19 22 °C 15 °C 1023.0 hPa WSW 5 km/h 13 km/h 66% 0.0 mm 717 W/m2
11:24 22 °C 15 °C 1022.9 hPa SSW 9 km/h 16 km/h 65% 0.0 mm 758 W/m2
11:29 22 °C 15 °C 1022.9 hPa WSW 8 km/h 16 km/h 65% 0.0 mm 758 W/m2
11:34 22 °C 15 °C 1022.8 hPa WSW 6 km/h 16 km/h 65% 0.0 mm 756 W/m2
11:39 22 °C 16 °C 1022.8 hPa SSW 5 km/h 13 km/h 64% 0.0 mm 737 W/m2
11:44 22 °C 15 °C 1022.7 hPa South 7 km/h 14 km/h 63% 0.0 mm 740 W/m2
11:49 23 °C 15 °C 1022.6 hPa WSW 8 km/h 16 km/h 62% 0.0 mm 747 W/m2
11:54 23 °C 15 °C 1022.5 hPa SSW 7 km/h 18 km/h 63% 0.0 mm 747 W/m2
11:59 23 °C 15 °C 1022.5 hPa SW 8 km/h 16 km/h 62% 0.0 mm 745 W/m2
12:04 23 °C 16 °C 1022.5 hPa SSW 7 km/h 13 km/h 62% 0.0 mm 752 W/m2
12:09 23 °C 15 °C 1022.4 hPa SW 5 km/h 13 km/h 60% 0.0 mm 759 W/m2
12:14 23 °C 15 °C 1022.4 hPa SW 7 km/h 14 km/h 60% 0.0 mm 761 W/m2
12:19 23 °C 15 °C 1022.3 hPa SSW 6 km/h 13 km/h 60% 0.0 mm 759 W/m2
12:24 23 °C 15 °C 1022.2 hPa SSW 5 km/h 11 km/h 59% 0.0 mm 765 W/m2
12:29 23 °C 15 °C 1022.1 hPa WSW 6 km/h 14 km/h 60% 0.0 mm 765 W/m2
12:34 24 °C 16 °C 1022.0 hPa WSW 6 km/h 14 km/h 59% 0.0 mm 777 W/m2
12:39 24 °C 15 °C 1021.9 hPa WSW 9 km/h 21 km/h 58% 0.0 mm 775 W/m2
12:44 24 °C 16 °C 1021.9 hPa West 6 km/h 14 km/h 58% 0.0 mm 793 W/m2
12:49 24 °C 15 °C 1021.8 hPa WSW 5 km/h 14 km/h 57% 0.0 mm 819 W/m2
12:54 24 °C 16 °C 1021.8 hPa SSW 3 km/h 11 km/h 57% 0.0 mm 844 W/m2
12:59 24 °C 16 °C 1021.7 hPa WSW 5 km/h 18 km/h 56% 0.0 mm 793 W/m2
13:04 24 °C 15 °C 1021.6 hPa WSW 4 km/h 10 km/h 56% 0.0 mm 782 W/m2
13:09 25 °C 16 °C 1021.6 hPa WSW 7 km/h 19 km/h 56% 0.0 mm 780 W/m2
13:14 25 °C 16 °C 1021.5 hPa SSW 4 km/h 14 km/h 55% 0.0 mm 782 W/m2
13:19 25 °C 15 °C 1021.5 hPa South 4 km/h 14 km/h 54% 0.0 mm 789 W/m2
13:24 25 °C 15 °C 1021.4 hPa SSW 9 km/h 19 km/h 54% 0.0 mm 789 W/m2
13:29 25 °C 15 °C 1021.4 hPa SSW 7 km/h 16 km/h 53% 0.0 mm 789 W/m2
13:34 25 °C 15 °C 1021.4 hPa South 6 km/h 14 km/h 52% 0.0 mm 788 W/m2
13:39 25 °C 15 °C 1021.3 hPa SW 6 km/h 13 km/h 54% 0.0 mm 780 W/m2
13:44 26 °C 15 °C 1021.3 hPa South 5 km/h 18 km/h 52% 0.0 mm 788 W/m2
13:49 26 °C 14 °C 1021.2 hPa South 10 km/h 21 km/h 51% 0.0 mm 788 W/m2
13:54 26 °C 14 °C 1021.2 hPa South 8 km/h 16 km/h 50% 0.0 mm 795 W/m2
13:59 26 °C 15 °C 1021.2 hPa SSW 6 km/h 14 km/h 51% 0.0 mm 782 W/m2
14:04 26 °C 15 °C 1021.0 hPa SW 7 km/h 16 km/h 51% 0.0 mm 772 W/m2
14:09 26 °C 14 °C 1020.9 hPa WSW 11 km/h 24 km/h 50% 0.0 mm 768 W/m2
14:14 26 °C 14 °C 1020.9 hPa SSW 4 km/h 14 km/h 50% 0.0 mm 758 W/m2
14:19 26 °C 14 °C 1020.8 hPa SSW 6 km/h 18 km/h 49% 0.0 mm 756 W/m2
14:24 26 °C 14 °C 1020.7 hPa SW 7 km/h 18 km/h 49% 0.0 mm 754 W/m2
14:29 26 °C 15 °C 1020.7 hPa WSW 7 km/h 13 km/h 49% 0.0 mm 761 W/m2
14:34 26 °C 14 °C 1020.6 hPa SSW 6 km/h 13 km/h 48% 0.0 mm 751 W/m2
14:39 26 °C 14 °C 1020.6 hPa SSW 10 km/h 23 km/h 48% 0.0 mm 744 W/m2
14:44 27 °C 14 °C 1020.6 hPa SSW 8 km/h 21 km/h 48% 0.0 mm 744 W/m2
14:49 27 °C 14 °C 1020.5 hPa SSW 10 km/h 19 km/h 46% 0.0 mm 744 W/m2
14:54 27 °C 14 °C 1020.5 hPa SW 9 km/h 19 km/h 47% 0.0 mm 737 W/m2
14:59 27 °C 14 °C 1020.5 hPa SW 11 km/h 21 km/h 47% 0.0 mm 729 W/m2
15:04 27 °C 14 °C 1020.4 hPa South 7 km/h 19 km/h 47% 0.0 mm 715 W/m2
15:09 27 °C 14 °C 1020.4 hPa WSW 10 km/h 19 km/h 48% 0.0 mm 707 W/m2
15:14 27 °C 14 °C 1020.4 hPa SW 7 km/h 14 km/h 47% 0.0 mm 710 W/m2
15:19 27 °C 14 °C 1020.3 hPa SSW 7 km/h 21 km/h 46% 0.0 mm 710 W/m2
15:24 27 °C 14 °C 1020.2 hPa WSW 9 km/h 21 km/h 46% 0.0 mm 691 W/m2
15:29 27 °C 14 °C 1020.1 hPa SSW 5 km/h 13 km/h 46% 0.0 mm 694 W/m2
15:34 27 °C 14 °C 1020.0 hPa SSW 10 km/h 23 km/h 46% 0.0 mm 680 W/m2
15:39 27 °C 14 °C 1019.9 hPa SSW 9 km/h 18 km/h 45% 0.0 mm 687 W/m2
15:44 27 °C 14 °C 1019.9 hPa SW 7 km/h 18 km/h 46% 0.0 mm 687 W/m2
15:49 27 °C 14 °C 1019.8 hPa South 6 km/h 14 km/h 47% 0.0 mm 654 W/m2
15:54 27 °C 14 °C 1019.7 hPa SSW 7 km/h 19 km/h 46% 0.0 mm 657 W/m2
15:59 27 °C 15 °C 1019.6 hPa WSW 7 km/h 21 km/h 47% 0.0 mm 656 W/m2
16:04 27 °C 14 °C 1019.6 hPa SW 7 km/h 21 km/h 45% 0.0 mm 652 W/m2
16:09 27 °C 14 °C 1019.5 hPa WSW 10 km/h 16 km/h 46% 0.0 mm 645 W/m2
16:14 27 °C 14 °C 1019.5 hPa WSW 5 km/h 16 km/h 45% 0.0 mm 650 W/m2
16:19 27 °C 14 °C 1019.4 hPa SW 5 km/h 11 km/h 46% 0.0 mm 650 W/m2
16:24 27 °C 14 °C 1019.4 hPa SW 4 km/h 13 km/h 46% 0.0 mm 603 W/m2
16:29 27 °C 14 °C 1019.4 hPa SW 11 km/h 21 km/h 45% 0.0 mm 578 W/m2
16:34 27 °C 14 °C 1019.4 hPa SW 9 km/h 21 km/h 45% 0.0 mm 578 W/m2
16:39 27 °C 14 °C 1019.3 hPa SW 6 km/h 11 km/h 46% 0.0 mm 599 W/m2
16:44 27 °C 14 °C 1019.3 hPa SSW 6 km/h 13 km/h 47% 0.0 mm 599 W/m2
16:49 27 °C 14 °C 1019.2 hPa SW 7 km/h 16 km/h 46% 0.0 mm 566 W/m2
16:54 27 °C 14 °C 1019.1 hPa SW 10 km/h 21 km/h 47% 0.0 mm 561 W/m2
16:59 27 °C 14 °C 1019.1 hPa WSW 11 km/h 18 km/h 45% 0.0 mm 543 W/m2
17:04 27 °C 14 °C 1019.0 hPa West 9 km/h 16 km/h 45% 0.0 mm 513 W/m2
17:09 27 °C 14 °C 1018.9 hPa West 8 km/h 16 km/h 45% 0.0 mm 510 W/m2
17:14 27 °C 14 °C 1018.9 hPa WSW 11 km/h 23 km/h 45% 0.0 mm 487 W/m2
17:19 27 °C 14 °C 1018.9 hPa WSW 10 km/h 21 km/h 46% 0.0 mm 464 W/m2
17:24 27 °C 14 °C 1018.8 hPa WSW 9 km/h 21 km/h 47% 0.0 mm 464 W/m2
17:29 27 °C 15 °C 1018.7 hPa WSW 7 km/h 14 km/h 47% 0.0 mm 485 W/m2
17:34 27 °C 14 °C 1018.6 hPa WSW 9 km/h 16 km/h 47% 0.0 mm 385 W/m2
17:39 27 °C 15 °C 1018.6 hPa SW 5 km/h 16 km/h 48% 0.0 mm 441 W/m2
17:44 27 °C 14 °C 1018.5 hPa SSW 6 km/h 16 km/h 46% 0.0 mm 424 W/m2
17:49 27 °C 14 °C 1018.4 hPa South 8 km/h 21 km/h 47% 0.0 mm 392 W/m2
17:54 27 °C 15 °C 1018.4 hPa WSW 8 km/h 14 km/h 47% 0.0 mm 385 W/m2
17:59 27 °C 14 °C 1018.4 hPa WSW 8 km/h 16 km/h 47% 0.0 mm 95 W/m2
18:04 26 °C 14 °C 1018.4 hPa WSW 6 km/h 16 km/h 48% 0.0 mm 371 W/m2
18:09 26 °C 14 °C 1018.4 hPa WSW 3 km/h 8 km/h 49% 0.0 mm 392 W/m2
18:14 27 °C 14 °C 1018.3 hPa SW 8 km/h 16 km/h 47% 0.0 mm 388 W/m2
18:19 27 °C 14 °C 1018.2 hPa WSW 9 km/h 16 km/h 47% 0.0 mm 339 W/m2
18:24 27 °C 14 °C 1018.2 hPa SW 6 km/h 16 km/h 47% 0.0 mm 297 W/m2
18:29 27 °C 14 °C 1018.2 hPa WSW 7 km/h 14 km/h 47% 0.0 mm 309 W/m2
18:34 27 °C 14 °C 1018.1 hPa WSW 6 km/h 13 km/h 46% 0.0 mm 309 W/m2
18:39 27 °C 14 °C 1018.0 hPa West 6 km/h 13 km/h 47% 0.0 mm 304 W/m2
18:44 27 °C 14 °C 1018.0 hPa WSW 7 km/h 11 km/h 47% 0.0 mm 279 W/m2
18:49 27 °C 14 °C 1018.0 hPa WSW 8 km/h 14 km/h 48% 0.0 mm 162 W/m2
18:54 26 °C 14 °C 1018.0 hPa WSW 7 km/h 14 km/h 49% 0.0 mm 141 W/m2
18:59 26 °C 14 °C 1018.0 hPa WSW 7 km/h 16 km/h 50% 0.0 mm 111 W/m2
19:04 26 °C 14 °C 1017.9 hPa WSW 9 km/h 16 km/h 50% 0.0 mm 123 W/m2
19:09 25 °C 14 °C 1017.9 hPa WSW 6 km/h 14 km/h 51% 0.0 mm 156 W/m2
19:14 25 °C 14 °C 1017.9 hPa WSW 6 km/h 13 km/h 51% 0.0 mm 121 W/m2
19:19 25 °C 14 °C 1017.9 hPa WSW 3 km/h 13 km/h 51% 0.0 mm 121 W/m2
19:24 25 °C 14 °C 1017.9 hPa WSW 2 km/h 10 km/h 52% 0.0 mm 125 W/m2
19:29 25 °C 15 °C 1017.8 hPa SW 2 km/h 8 km/h 52% 0.0 mm 125 W/m2
19:34 26 °C 14 °C 1017.7 hPa WSW 4 km/h 8 km/h 51% 0.0 mm 76 W/m2
19:39 25 °C 14 °C 1017.7 hPa WSW 4 km/h 11 km/h 52% 0.0 mm 88 W/m2
19:44 25 °C 14 °C 1017.6 hPa WSW 5 km/h 11 km/h 52% 0.0 mm 79 W/m2
19:49 25 °C 14 °C 1017.6 hPa WSW 4 km/h 11 km/h 52% 0.0 mm 69 W/m2
19:54 25 °C 14 °C 1017.6 hPa WSW 2 km/h 8 km/h 52% 0.0 mm 58 W/m2
19:59 25 °C 14 °C 1017.6 hPa Calm   6 km/h 53% 0.0 mm 49 W/m2
20:04 25 °C 14 °C 1017.5 hPa Calm   3 km/h 53% 0.0 mm 39 W/m2
20:09 24 °C 14 °C 1017.5 hPa Calm   5 km/h 53% 0.0 mm 26 W/m2
20:14 24 °C 14 °C 1017.5 hPa Calm     54% 0.0 mm 23 W/m2
20:19 24 °C 14 °C 1017.4 hPa Calm     55% 0.0 mm 19 W/m2
20:24 24 °C 14 °C 1017.4 hPa Calm     55% 0.0 mm 16 W/m2
20:29 24 °C 14 °C 1017.4 hPa Calm   5 km/h 55% 0.0 mm 14 W/m2
20:34 24 °C 14 °C 1017.4 hPa Calm   5 km/h 55% 0.0 mm 11 W/m2
20:39 24 °C 14 °C 1017.3 hPa Calm     56% 0.0 mm 9 W/m2
20:44 23 °C 14 °C 1017.3 hPa Calm     56% 0.0 mm 5 W/m2
20:49 23 °C 14 °C 1017.4 hPa Calm     57% 0.0 mm 0 W/m2
20:54 23 °C 14 °C 1017.4 hPa Calm     57% 0.0 mm 0 W/m2
20:59 23 °C 14 °C 1017.4 hPa Calm     58% 0.0 mm 0 W/m2
21:04 23 °C 14 °C 1017.3 hPa Calm     59% 0.0 mm 0 W/m2
21:09 23 °C 14 °C 1017.3 hPa Calm     59% 0.0 mm 0 W/m2
21:14 22 °C 14 °C 1017.3 hPa Calm     60% 0.0 mm 0 W/m2
21:19 22 °C 14 °C 1017.3 hPa Calm     60% 0.0 mm 0 W/m2
21:24 22 °C 14 °C 1017.3 hPa Calm     60% 0.0 mm 0 W/m2
21:29 22 °C 14 °C 1017.3 hPa Calm     61% 0.0 mm 0 W/m2
21:34 22 °C 14 °C 1017.3 hPa Calm     61% 0.0 mm 0 W/m2
21:39 22 °C 14 °C 1017.3 hPa Calm     62% 0.0 mm 0 W/m2
21:44 21 °C 14 °C 1017.2 hPa Calm     62% 0.0 mm 0 W/m2
21:49 21 °C 14 °C 1017.3 hPa Calm     62% 0.0 mm 0 W/m2
21:54 21 °C 14 °C 1017.2 hPa Calm     63% 0.0 mm 0 W/m2
21:59 21 °C 14 °C 1017.2 hPa Calm     63% 0.0 mm 0 W/m2
22:04 21 °C 14 °C 1017.2 hPa Calm     63% 0.0 mm 0 W/m2
22:09 21 °C 13 °C 1017.2 hPa Calm     63% 0.0 mm 0 W/m2
22:14 21 °C 14 °C 1017.2 hPa Calm     64% 0.0 mm 0 W/m2
22:19 21 °C 13 °C 1017.2 hPa Calm     64% 0.0 mm 0 W/m2
22:24 21 °C 14 °C 1017.2 hPa Calm     65% 0.0 mm 0 W/m2
22:29 21 °C 14 °C 1017.0 hPa Calm     65% 0.0 mm 0 W/m2
22:34 21 °C 14 °C 1017.1 hPa West 1 km/h 11 km/h 65% 0.0 mm 0 W/m2
22:39 21 °C 14 °C 1017.2 hPa WNW 1 km/h 11 km/h 66% 0.0 mm 0 W/m2
22:44 20 °C 14 °C 1017.2 hPa Calm   3 km/h 67% 0.0 mm 0 W/m2
22:49 20 °C 14 °C 1017.2 hPa Calm     67% 0.0 mm 0 W/m2
22:54 20 °C 14 °C 1017.2 hPa Calm     68% 0.0 mm 0 W/m2
22:59 20 °C 14 °C 1017.2 hPa Calm     68% 0.0 mm 0 W/m2
23:04 19 °C 14 °C 1017.2 hPa Calm     69% 0.0 mm 0 W/m2
23:09 19 °C 14 °C 1017.2 hPa Calm     70% 0.0 mm 0 W/m2
23:14 19 °C 14 °C 1017.2 hPa Calm     71% 0.0 mm 0 W/m2
23:19 19 °C 14 °C 1017.2 hPa Calm     71% 0.0 mm 0 W/m2
23:24 19 °C 14 °C 1017.3 hPa Calm     72% 0.0 mm 0 W/m2
23:29 19 °C 14 °C 1017.2 hPa Calm     73% 0.0 mm 0 W/m2
23:34 19 °C 14 °C 1017.1 hPa Calm     73% 0.0 mm 0 W/m2
23:39 19 °C 14 °C 1017.1 hPa Calm     74% 0.0 mm 0 W/m2
23:44 19 °C 14 °C 1017.1 hPa Calm     74% 0.0 mm 0 W/m2
23:49 19 °C 14 °C 1017.1 hPa Calm     75% 0.0 mm 0 W/m2
23:54 18 °C 14 °C 1017.1 hPa Calm     75% 0.0 mm 0 W/m2
23:59 18 °C 14 °C 1017.1 hPa Calm   5 km/h 75% 0.0 mm 0 W/m2
Compliments of Weather Underground - 4.25 mb